Weather in Frunze

Russia / Republic of Crimea     45°18′01″N   34°42′28″E
temp.,
°C
wind,
m/s
gust,
m/s
humid.,
%
clouds,
%
prec.,
mm/h
press.,
hPa
HPBL,
m
6 august, fri
fri600:00+23ssw11680 0.0 101012
03:00+23se33643 0.0 100930
06:00+22sse22610 0.0 100820
09:00+31e45370 0.0 1006895
12:00+36e55234 0.0 10052403
15:00+37e65230 0.0 10032954
18:00+34e56310 0.0 10021473
21:00+26ssw36545 0.0 1003135
7 august, sat
sat700:00+24wsw596556 0.0 1003193
03:00+22w227214 0.0 100322
06:00+22wsw3576100 0.0 1004103
09:00+29nw334887 0.0 1004691
12:00+35nnw552774 0.0 10042154
15:00+36nne6624100 0.0 10042721
18:00+35ne562831 0.0 10042590
21:00+27ssw005157 0.0 100611
8 august, sun
sun800:00+27nnw2556100 0.1 1008225
03:00+23nw367598 0.1 1009189
06:00+22w5881100 0.3 1010254
09:00+24wnw5670100 0.3 1011573
12:00+29nw5650100 0.0 10111156
15:00+33n773715 0.0 10101848
18:00+31nne66365 0.0 10111800
21:00+25nw11555 0.0 101211
9 august, mon
mon900:00+23wnw336797 0.8 101353
03:00+22wsw45694 0.8 101282
06:00+21w47725 0.0 1012126
09:00+28nnw44575 0.3 1013952
12:00+33n553240 0.0 10132069
15:00+31n5529100 0.0 10131193
18:00+32n352664 0.0 10131813
21:00+27w113763 0.0 101411
10 august, tue
tue1000:00+25sw47446 0.0 1013111
03:00+23w365131 0.0 101396
06:00+22wsw34600 0.0 101454
09:00+30wnw46320 0.0 1013864
12:00+34nnw78251 0.0 10122475
15:00+34n78245 0.0 10122718
18:00+33n57250 0.0 10112590
21:00+26ese33470 0.0 101237